Temperature
19 18 16 15 14 14 13 12 12 12 11 11 11 11 10 10 10 9 9 9 9 9 9 9 9 9 10 10 10 11 11 11 11 11 11 11 11 11 11 12 12 12 13
19 18 17 15 14 14 13 12 12 12 11 11 11 10 10 10 9 9 9 9 9 9 9 9 9 9 9 10 10 11 11 11 11 11 11 10 10 10 10 10 11 11 11
19 18 17 15 14 14 13 12 12 11 11 11 10 10 10 10 9 9 9 9 9 9 8 8 9 9 9 10 10 10 11 11 11 11 10 9 9 9 9 10 10 10 10
19 18 17 16 15 14 13 12 12 11 11 11 10 10 10 9 9 9 9 8 9 8 9 9 9 9 9 9 10 10 11 11 10 10 9 9 8 8 9 9 9 9 10
19 18 17 16 15 14 13 12 12 11 11 11 10 10 10 9 9 9 8 8 8 9 9 9 9 9 9 9 10 10 10 10 10 9 9 9 8 8 8 8 8 9 9
19 18 17 16 15 14 13 12 12 11 11 11 10 10 9 9 9 9 8 9 8 9 9 8 8 9 9 9 9 10 10 10 9 9 9 8 8 8 8 8 8 8 8
18 18 17 16 15 14 13 12 11 11 11 10 10 10 10 9 9 9 9 9 9 8 8 8 8 8 8 9 9 9 9 9 9 8 8 8 7 7 7 7 8 8 8
18 17 17 16 15 13 13 12 11 11 11 10 10 10 9 9 9 9 9 9 8 8 8 8 8 8 9 9 9 9 9 9 8 8 8 7 7 7 7 7 7 7 7
18 17 16 15 14 13 12 12 11 11 10 10 10 10 9 9 9 9 9 8 8 8 8 8 8 9 9 9 9 9 9 9 8 8 8 7 7 7 6 7 7 7 7
17 17 16 14 13 12 12 11 11 10 10 10 10 9 9 9 9 8 8 8 8 8 8 8 8 8 9 9 8 8 8 8 8 8 7 7 7 7 6 6 6 6 6
17 17 16 14 13 12 11 11 11 10 10 10 10 9 9 9 8 8 8 8 8 8 8 8 8 8 8 8 8 8 8 8 7 8 8 8 8 7 6 6 6 6 6
17 16 16 14 13 12 11 11 10 10 10 10 9 9 9 8 8 8 8 8 8 8 8 8 8 8 8 7 8 8 8 8 8 8 8 8 8 7 6 6 6 6 6
16 16 15 14 13 12 11 11 10 10 10 9 9 9 9 8 8 8 8 8 8 8 8 8 8 7 7 7 7 8 8 8 8 8 8 8 8 8 7 6 5 5 5
15 15 15 14 14 13 11 11 10 10 10 9 9 9 9 9 8 8 8 8 8 8 8 8 8 7 8 8 8 8 8 8 8 8 8 8 8 8 7 7 5 5 5
16 15 15 15 14 13 12 11 10 10 10 9 9 9 9 8 8 8 8 8 8 8 8 8 8 7 7 7 8 8 8 8 8 8 8 8 8 8 8 7 6 5 5
16 16 15 15 14 13 12 11 11 10 10 9 9 9 9 8 8 8 8 8 8 8 7 7 7 7 7 7 7 7 8 7 8 8 8 8 8 8 8 8 7 6 6
16 16 15 15 14 13 12 11 10 10 10 10 9 9 9 8 8 8 8 8 8 7 7 7 7 7 7 7 7 7 7 7 7 7 7 8 8 8 8 8 8 7 7
16 16 15 15 14 13 12 11 11 10 10 9 9 9 9 8 8 8 8 8 7 7 7 7 7 7 7 7 7 7 7 7 7 7 7 7 8 8 8 8 8 8 7
16 15 15 14 13 12 12 11 10 10 10 9 9 9 9 8 8 8 8 7 7 7 7 7 7 6 6 6 6 6 6 6 7 7 7 7 8 8 8 8 8 8 8
15 15 15 14 13 12 12 11 11 10 10 10 10 9 9 9 8 8 8 8 7 7 7 7 7 6 6 6 5 5 5 5 6 6 7 7 7 8 8 8 8 8 8
15 14 14 14 13 13 12 11 11 11 10 10 10 10 9 9 9 8 8 8 7 7 7 7 6 6 6 6 5 5 5 5 5 6 7 8 8 8 8 8 8 8 8
14 14 14 13 13 12 12 11 11 11 11 10 10 10 9 9 9 8 8 8 8 7 7 7 7 6 6 5 4 3 4 5 6 5 6 7 8 8 8 8 8 8 8
13 13 13 13 12 12 12 11 11 11 11 10 10 10 10 9 9 9 8 8 8 7 7 7 7 6 5 5 4 3 3 5 6 5 5 5 6 6 6 7 7 7 7
13 12 12 12 12 12 11 11 11 10 10 10 10 9 9 9 9 8 8 8 7 7 7 7 7 6 5 5 4 3 3 3 3 4 4 4 4 4 4 5 5 6 6
12 12 12 12 11 11 11 11 10 10 9 9 9 9 8 8 8 8 8 7 7 7 7 6 6 5 5 4 4 3 2 2 1 1 2 4 4 3 3 3 3 4 5
11 11 11 11 11 11 10 10 9 9 9 8 8 8 8 7 7 7 7 7 6 6 6 6 5 5 5 4 3 3 2 1 1 1 1 2 3 3 3 2 2 2 3
Wind_Speed
10 17 22 21 19 17 15 14 13 11 10 10 10 9 10 10 10 10 11 11 11 11 11 11 12 12 13 14 15 15 16 16 17 16 16 16 16 15 15 14 14 15 17
12 20 23 22 20 18 16 14 13 12 11 10 10 9 9 9 9 9 9 10 10 10 11 11 11 11 12 12 13 14 14 14 14 15 14 14 14 15 15 15 15 14 15
13 21 24 23 21 19 17 15 14 13 11 10 10 9 9 8 9 9 9 9 9 10 10 10 10 10 11 11 12 12 13 13 13 12 12 12 12 14 14 14 15 14 14
14 21 22 24 22 20 18 16 15 13 12 11 10 9 9 8 8 8 8 8 8 8 9 9 9 9 9 10 10 11 11 11 11 9 10 10 10 12 13 13 14 14 14
15 20 21 24 22 20 18 17 15 14 13 11 10 10 9 8 8 8 7 7 7 7 7 7 8 8 8 8 9 9 10 10 9 8 9 9 9 11 11 11 12 12 12
15 20 21 24 22 21 19 18 16 15 13 12 11 10 9 8 7 7 7 6 6 6 6 6 6 7 7 7 7 7 8 8 5 7 7 8 8 8 9 9 9 10 10
14 18 20 24 22 21 20 18 17 15 14 13 11 10 9 8 8 7 6 6 5 5 5 5 5 5 5 5 5 6 6 6 4 5 5 6 7 6 7 7 7 7 8
13 17 19 23 22 21 20 18 17 16 15 13 12 11 10 9 8 7 6 6 5 4 4 3 3 3 3 3 3 4 4 4 2 2 3 4 7 5 4 4 4 5 5
13 16 17 20 21 20 19 18 17 16 15 14 12 11 10 9 8 7 6 6 5 4 3 2 2 1 1 1 1 2 2 3 2 1 2 3 7 4 2 2 2 2 2
11 14 16 18 19 18 18 18 17 16 15 14 13 11 10 9 8 8 7 6 6 5 4 3 3 2 2 1 1 1 1 3 4 4 4 3 7 5 3 3 3 2 2
11 13 15 16 16 16 16 16 17 16 15 14 13 12 11 9 9 8 8 7 7 6 6 5 5 5 4 4 3 3 4 5 5 6 6 5 8 8 7 6 6 5 5
13 14 14 15 15 15 13 14 14 14 14 14 12 12 11 9 8 7 6 7 7 7 7 7 7 7 7 6 5 5 7 7 7 7 7 8 10 11 11 10 9 9 9
11 13 14 15 15 14 12 12 11 11 11 12 12 11 10 9 8 8 8 8 9 8 9 7 8 8 8 7 7 8 9 9 8 8 9 10 13 14 14 14 13 13 12
9 12 14 15 14 14 13 12 11 10 10 10 10 11 10 8 9 8 9 9 9 9 9 9 9 10 10 11 11 12 12 11 10 10 11 13 15 17 17 17 17 16 16
8 11 13 14 14 14 13 11 11 11 11 11 11 12 12 10 10 10 10 10 11 11 11 11 11 12 12 13 13 13 14 14 14 14 12 15 18 19 20 20 20 20 19
6 9 11 13 14 14 12 11 11 11 11 11 11 13 14 13 11 11 11 11 12 12 13 13 13 13 12 12 13 15 16 16 16 17 16 16 19 22 23 23 23 23 23
3 6 8 10 12 13 13 12 11 11 11 11 11 13 14 15 14 13 12 12 13 14 14 14 14 13 12 13 14 16 17 18 18 18 18 17 17 21 25 26 26 26 26
3 4 6 6 9 11 11 10 10 10 11 11 11 12 14 16 16 14 13 13 15 14 13 12 11 11 12 12 13 13 14 15 19 20 20 19 19 18 21 27 29 29 29
6 5 5 5 6 7 8 8 8 8 9 10 11 11 13 15 16 16 14 15 15 13 12 11 12 12 13 14 14 14 14 14 16 18 20 22 22 21 21 22 28 31 32
9 8 6 5 3 4 4 5 5 6 7 9 10 12 14 14 16 16 15 17 16 11 11 12 14 14 13 13 14 15 15 16 16 17 19 21 22 24 25 24 23 25 32
11 10 8 6 4 3 3 3 4 5 6 7 9 12 14 15 15 15 14 15 14 13 14 16 15 15 14 12 11 13 16 18 19 17 17 17 19 23 24 25 24 22 22
12 10 8 6 4 3 2 2 2 4 5 6 7 10 12 14 15 14 15 13 13 12 15 16 15 13 12 11 9 9 10 12 15 16 16 16 17 17 19 23 24 23 22
12 10 7 6 4 2 1 1 2 3 4 5 6 7 9 12 14 15 16 15 14 13 13 15 15 16 14 12 12 11 9 9 9 8 13 14 15 14 15 17 21 23 24
10 8 8 7 5 3 1 1 3 4 5 6 6 7 9 10 12 13 15 15 14 13 15 15 15 14 15 14 13 14 15 12 10 9 9 11 13 15 16 14 16 20 22
8 7 7 7 6 4 2 2 3 5 6 7 7 9 9 9 10 12 13 13 13 13 15 16 16 16 14 15 14 13 15 15 17 13 16 16 14 14 15 17 16 16 20
7 7 6 6 6 5 4 3 4 6 8 9 10 10 9 8 8 10 11 12 13 12 14 15 16 17 16 17 16 15 15 13 13 15 17 18 17 16 16 15 16 16 18
Wind_Direction
181 174 172 174 168 165 162 159 153 149 145 139 129 121 115 110 104 99 94 91 87 81 76 74 72 70 69 67 66 64 63 62 60 57 57 63 68 70 67 62 61 62 60
169 172 172 173 170 168 166 164 159 154 151 145 137 128 120 116 110 104 98 92 88 83 79 75 73 73 70 70 70 68 67 64 62 58 57 63 67 70 68 65 63 64 62
164 169 173 174 172 171 170 168 164 160 157 151 144 138 131 124 118 110 102 95 88 84 80 77 74 74 72 71 71 70 68 64 60 57 61 62 67 69 68 66 65 64 63
168 171 175 173 174 174 173 172 168 165 163 159 154 149 142 135 127 119 109 100 93 87 83 79 76 75 75 74 72 70 67 62 56 54 61 56 63 67 67 65 64 63 61
171 175 174 173 176 176 176 175 173 171 169 166 162 157 152 145 134 125 116 108 101 93 87 82 79 76 77 75 73 71 65 57 53 62 61 54 57 65 65 64 62 62 61
174 177 174 176 178 179 179 178 176 175 174 171 169 165 161 154 144 135 127 119 111 104 95 87 81 78 77 76 72 69 62 45 56 66 58 48 50 63 65 63 60 59 59
175 178 176 179 180 181 182 180 179 178 179 177 177 174 171 166 158 149 143 136 128 119 109 96 85 80 77 77 73 68 58 31 46 63 50 38 38 51 59 58 56 56 56
178 179 177 181 184 184 185 183 182 183 183 182 184 182 180 176 170 165 161 157 151 141 128 115 100 85 76 74 77 73 52 17 20 48 35 28 17 27 45 46 44 47 48
182 182 180 183 187 188 188 187 186 187 188 187 189 190 188 186 184 180 177 177 174 171 163 153 141 124 92 73 79 86 54 6 286 303 327 354 354 349 6 13 11 19 27
187 188 186 187 189 190 191 191 189 190 191 193 193 193 192 195 196 191 193 193 195 197 200 205 210 218 226 244 246 224 218 257 258 260 263 301 333 315 301 295 294 295 298
194 195 193 192 190 192 193 190 191 192 194 196 197 192 193 205 206 203 206 201 213 218 223 228 232 238 241 235 248 242 230 252 259 260 260 285 300 291 276 269 268 269 266
198 197 197 197 193 193 192 192 196 198 198 202 204 199 204 209 212 215 189 208 226 234 238 241 243 243 244 242 224 225 246 253 261 255 254 265 274 276 272 264 259 259 258
205 198 200 200 198 196 194 196 197 198 201 205 208 203 201 206 210 218 220 216 225 231 240 236 242 244 247 251 256 252 257 261 258 258 254 253 260 265 267 264 259 255 254
210 202 201 200 201 202 200 200 201 199 201 203 204 203 202 208 219 223 229 233 235 236 241 245 248 248 251 252 253 256 255 252 254 256 255 249 254 258 261 263 260 256 253
212 203 202 202 203 204 207 208 209 210 210 209 207 210 214 220 227 230 235 237 241 245 245 247 250 253 253 254 252 254 255 254 253 251 252 247 249 252 255 258 259 257 254
210 203 199 202 205 205 209 213 215 219 219 222 219 221 223 230 235 236 241 242 245 246 249 251 254 257 257 255 255 254 255 256 253 251 250 249 245 246 249 252 254 255 255
190 192 194 200 205 208 214 219 223 225 226 228 229 231 230 234 239 240 246 248 248 249 250 252 255 257 258 258 258 257 256 254 253 252 250 249 247 243 244 247 250 252 254
105 154 175 187 202 209 215 221 226 231 234 235 236 238 237 239 242 246 248 251 253 252 250 250 253 254 255 256 259 259 255 253 253 252 251 247 246 246 243 242 245 247 249
78 104 137 169 191 204 214 222 231 237 241 244 243 243 243 244 244 246 250 255 257 253 250 251 254 254 259 260 261 262 259 257 255 253 250 249 245 244 245 244 242 244 245
72 83 99 127 159 180 198 217 231 242 247 248 248 248 249 248 247 247 252 256 258 253 251 251 253 255 257 264 269 267 264 259 255 251 251 250 246 243 242 244 243 243 242
69 74 82 96 116 146 168 202 228 243 249 250 251 255 255 254 253 250 253 258 256 252 252 255 257 258 257 259 266 270 264 255 251 249 246 247 245 242 241 240 240 241 242
64 66 72 80 97 129 170 209 246 268 272 271 265 263 260 258 256 254 254 256 256 255 255 256 256 256 257 248 247 269 279 272 249 239 241 242 244 243 240 239 238 238 238
59 58 62 68 77 91 155 227 261 269 274 271 273 271 268 264 260 256 256 258 258 255 256 255 253 249 252 250 236 243 262 269 290 249 237 240 241 241 241 239 238 237 236
58 59 62 65 68 70 96 270 281 287 293 299 298 289 285 274 266 262 261 260 261 258 257 257 253 251 249 253 249 237 244 261 272 280 252 241 244 246 247 243 241 239 236
62 60 60 62 60 55 40 338 301 297 300 302 301 295 294 286 275 268 265 264 262 260 259 258 257 253 247 247 249 248 246 249 250 256 270 267 258 249 247 248 247 243 240
66 59 54 53 47 36 18 347 319 311 308 307 306 304 301 296 288 279 272 267 265 263 261 260 258 256 252 250 249 248 248 246 244 246 259 266 267 264 255 248 247 247 244
Height
1551 1551 1552 1554 1555 1557 1558 1559 1560 1560 1561 1562 1562 1562 1562 1562 1561 1561 1561 1561 1560 1560 1559 1558 1558 1557 1556 1556 1555 1555 1555 1554 1554 1553 1553 1553 1552 1552 1551 1551 1551 1551 1550
1551 1551 1552 1553 1555 1556 1558 1559 1560 1561 1561 1562 1562 1563 1563 1563 1562 1562 1562 1562 1561 1561 1560 1559 1559 1558 1557 1557 1556 1556 1555 1555 1555 1555 1554 1554 1554 1553 1553 1552 1552 1551 1551
1550 1551 1552 1553 1555 1556 1558 1559 1560 1561 1562 1562 1563 1563 1563 1563 1563 1563 1563 1562 1562 1561 1561 1560 1559 1559 1558 1558 1557 1557 1556 1556 1556 1556 1556 1556 1555 1555 1554 1553 1553 1552 1552
1550 1551 1551 1552 1554 1556 1557 1559 1560 1561 1562 1562 1563 1563 1564 1564 1564 1564 1563 1563 1562 1562 1561 1561 1560 1559 1559 1558 1558 1558 1557 1557 1557 1557 1557 1557 1557 1556 1555 1555 1554 1553 1552
1549 1550 1551 1552 1554 1555 1557 1559 1560 1561 1562 1563 1563 1564 1564 1564 1564 1564 1564 1563 1563 1562 1562 1561 1561 1560 1560 1559 1559 1558 1558 1558 1558 1558 1558 1558 1558 1557 1556 1555 1555 1554 1553
1549 1550 1550 1551 1553 1555 1556 1558 1560 1561 1562 1563 1563 1564 1564 1565 1565 1564 1564 1564 1563 1563 1562 1562 1561 1561 1560 1560 1559 1559 1559 1559 1559 1559 1559 1558 1558 1558 1557 1556 1555 1555 1554
1548 1549 1550 1551 1552 1554 1556 1558 1559 1560 1562 1563 1563 1564 1564 1565 1565 1565 1564 1564 1564 1563 1563 1562 1562 1561 1561 1560 1560 1559 1559 1559 1559 1559 1559 1559 1558 1558 1557 1557 1556 1555 1554
1547 1548 1549 1550 1552 1554 1555 1557 1559 1560 1561 1562 1563 1564 1565 1565 1565 1565 1564 1564 1564 1564 1563 1563 1562 1562 1561 1561 1560 1559 1559 1559 1559 1559 1559 1558 1557 1557 1557 1556 1555 1555 1554
1545 1546 1548 1549 1551 1553 1555 1556 1558 1559 1561 1562 1563 1564 1564 1565 1565 1565 1565 1564 1564 1564 1563 1563 1562 1562 1561 1561 1560 1559 1559 1559 1558 1558 1558 1557 1556 1556 1556 1555 1555 1554 1554
1543 1544 1546 1548 1550 1552 1554 1555 1557 1559 1560 1562 1562 1563 1564 1564 1565 1565 1564 1564 1564 1563 1563 1563 1562 1562 1561 1560 1560 1559 1559 1558 1558 1557 1557 1556 1555 1555 1555 1554 1554 1553 1552
1540 1542 1544 1547 1549 1551 1553 1554 1556 1558 1559 1561 1562 1562 1563 1564 1565 1564 1564 1564 1563 1563 1563 1562 1562 1561 1560 1560 1559 1558 1558 1557 1557 1556 1555 1554 1554 1553 1553 1553 1552 1551 1551
1538 1539 1541 1544 1547 1549 1551 1553 1555 1557 1558 1559 1561 1561 1562 1563 1564 1564 1563 1563 1562 1562 1562 1561 1561 1560 1559 1559 1558 1557 1556 1555 1555 1554 1553 1552 1552 1551 1551 1550 1550 1549 1549
1535 1537 1539 1542 1544 1547 1549 1551 1553 1555 1556 1558 1559 1560 1560 1561 1561 1561 1562 1561 1561 1561 1560 1560 1559 1559 1558 1557 1556 1555 1554 1553 1552 1551 1550 1550 1549 1548 1548 1548 1548 1547 1546
1531 1533 1536 1539 1541 1544 1547 1549 1551 1552 1554 1555 1556 1557 1558 1559 1559 1560 1560 1560 1559 1559 1558 1558 1557 1556 1555 1554 1553 1552 1551 1550 1549 1548 1547 1546 1546 1545 1544 1544 1544 1544 1544
1528 1530 1533 1536 1539 1541 1544 1546 1548 1550 1551 1553 1554 1555 1556 1556 1557 1557 1557 1557 1556 1556 1555 1555 1554 1553 1552 1551 1550 1549 1548 1546 1545 1544 1543 1542 1541 1541 1540 1540 1540 1540 1540
1526 1528 1531 1533 1536 1539 1541 1543 1546 1547 1549 1550 1551 1552 1553 1553 1554 1554 1554 1553 1553 1552 1552 1551 1550 1549 1548 1546 1545 1544 1543 1542 1540 1539 1538 1537 1536 1535 1535 1534 1534 1534 1535
1525 1527 1529 1531 1534 1536 1539 1541 1543 1544 1546 1547 1547 1548 1549 1550 1550 1550 1549 1549 1549 1548 1547 1546 1545 1544 1542 1541 1539 1538 1537 1535 1534 1533 1532 1530 1530 1529 1529 1528 1528 1528 1528
1525 1526 1528 1530 1532 1534 1536 1538 1540 1541 1542 1543 1544 1544 1545 1545 1546 1545 1545 1544 1544 1543 1542 1540 1539 1538 1536 1534 1533 1531 1529 1527 1526 1525 1524 1523 1522 1521 1521 1521 1521 1521 1521
1526 1527 1528 1529 1531 1533 1534 1536 1537 1538 1539 1539 1540 1540 1540 1540 1540 1540 1539 1538 1538 1536 1535 1534 1533 1531 1529 1528 1525 1523 1521 1519 1517 1516 1515 1514 1513 1512 1512 1512 1513 1512 1512
1528 1528 1529 1529 1530 1532 1533 1534 1535 1535 1536 1536 1536 1536 1535 1535 1535 1534 1533 1532 1532 1530 1528 1527 1525 1524 1522 1520 1518 1514 1512 1509 1507 1505 1504 1504 1503 1502 1502 1503 1502 1502 1502
1531 1530 1531 1531 1531 1532 1532 1533 1533 1534 1534 1533 1533 1532 1531 1530 1529 1528 1526 1525 1524 1522 1521 1520 1518 1516 1514 1513 1509 1505 1502 1500 1496 1494 1493 1493 1492 1492 1492 1491 1491 1491 1491
1533 1533 1533 1533 1533 1533 1533 1533 1533 1533 1532 1531 1530 1529 1527 1526 1524 1522 1521 1519 1518 1515 1513 1512 1511 1508 1506 1506 1503 1500 1495 1493 1488 1484 1482 1482 1482 1482 1480 1480 1480 1479 1479
1536 1535 1535 1534 1534 1534 1533 1533 1532 1531 1530 1528 1527 1525 1523 1521 1519 1517 1515 1513 1511 1509 1506 1505 1503 1500 1498 1497 1495 1493 1491 1485 1482 1477 1474 1473 1472 1471 1470 1470 1469 1468 1468
1537 1537 1536 1535 1535 1534 1533 1532 1531 1529 1528 1526 1524 1521 1519 1517 1514 1512 1510 1507 1505 1502 1499 1498 1496 1493 1490 1488 1487 1484 1482 1480 1478 1470 1468 1465 1463 1461 1461 1459 1458 1457 1457
1538 1538 1537 1536 1535 1534 1532 1531 1529 1527 1525 1523 1520 1517 1514 1512 1509 1506 1503 1501 1498 1495 1492 1490 1488 1485 1482 1479 1478 1476 1473 1470 1468 1465 1458 1458 1457 1453 1450 1448 1447 1446 1445
1539 1538 1537 1536 1534 1532 1531 1529 1527 1524 1521 1518 1516 1512 1509 1506 1503 1500 1497 1494 1491 1488 1485 1482 1479 1477 1474 1471 1468 1466 1464 1462 1459 1456 1450 1447 1446 1445 1443 1439 1436 1435 1434